MST,Max TemperatureF,Mean TemperatureF,Min TemperatureF,Max Dew PointF,MeanDew PointF,Min DewpointF,Max Humidity, Mean Humidity, Min Humidity, Max Sea Level PressureIn, Mean Sea Level PressureIn, Min Sea Level PressureIn, Max VisibilityMiles, Mean VisibilityMiles, Min VisibilityMiles, Max Wind SpeedMPH, Mean Wind SpeedMPH, Max Gust SpeedMPH,PrecipitationIn, CloudCover, Events, WindDirDegrees
2012-1-1,80,62,43,35,28,23,70,42,13,30.26,30.19,30.14,10,10,10,23,11,30,0.00,0,,121
2012-1-2,76,67,58,23,21,19,23,18,13,30.37,30.24,30.16,10,10,10,29,17,38,0.00,0,,110
2012-1-3,79,64,48,32,25,20,54,33,11,30.30,30.22,30.12,10,10,10,22,7,28,0.00,0,,137
2012-1-4,76,59,41,31,25,16,62,36,10,30.36,30.25,30.19,10,10,10,16,6,20,0.00,0,,115
2012-1-5,75,58,40,24,19,12,42,26,9,30.27,30.14,30.03,10,10,10,16,6,20,0.00,0,,132
2012-1-6,74,58,41,25,20,10,43,26,9,30.08,30.00,29.95,10,10,10,16,6,22,0.00,0,,152
2012-1-7,74,59,43,26,21,14,39,25,10,30.01,29.93,29.85,10,10,10,10,7,16,0.00,0,,180
2012-1-8,57,48,39,28,25,21,55,42,29,30.13,29.99,29.91,10,10,10,10,6,12,0.00,1,,271
2012-1-9,62,47,32,30,27,24,69,47,25,30.27,30.19,30.12,10,10,2,21,4,40,0.00,0,,146
2012-1-10,69,53,37,29,26,20,70,43,15,30.23,30.12,30.02,10,10,10,13,5,25,0.00,0,,148
2012-1-11,64,52,39,27,24,19,60,39,18,30.06,30.01,29.94,10,10,10,8,6,,0.00,0,,148
2012-1-12,61,52,42,31,24,17,57,38,19,30.05,30.01,29.96,10,10,10,9,3,17,0.00,0,,292
2012-1-13,67,50,32,26,19,11,69,40,11,30.21,30.13,30.06,10,10,10,17,5,21,0.00,0,,92
2012-1-14,71,55,38,21,11,1,44,26,7,30.19,30.14,30.07,10,10,10,26,7,31,0.00,2,,133
2012-1-15,67,57,47,50,35,24,89,56,22,30.20,30.09,30.04,10,10,9,15,4,18,0.09,6,Rain,81
2012-1-16,63,55,47,51,47,45,100,78,55,30.16,30.05,30.00,10,10,7,15,4,22,0.05,6,Rain,187
2012-1-17,65,53,41,44,41,37,96,67,37,30.25,30.19,30.11,10,10,10,9,5,23,0.00,1,,167
2012-1-18,68,53,37,39,34,27,89,56,22,30.29,30.21,30.15,10,10,10,14,5,17,0.00,0,,133
2012-1-19,73,55,37,32,25,9,70,40,9,30.15,30.05,29.95,10,10,10,12,5,16,0.00,0,,149
2012-1-20,74,56,38,30,22,10,52,31,9,30.07,30.01,29.96,10,10,10,13,5,15,0.00,0,,147
2012-1-21,74,59,44,37,27,18,45,30,15,30.04,29.93,29.82,10,10,10,21,8,28,0.00,1,,162
2012-1-22,62,51,40,36,28,19,79,50,20,30.13,30.06,29.95,10,10,10,9,4,20,0.00,2,,275
2012-1-23,68,53,37,24,19,9,52,31,10,30.09,29.97,29.80,10,10,10,14,6,26,0.00,1,,143
2012-1-24,59,51,43,37,34,25,62,44,25,30.10,29.97,29.81,10,10,10,17,9,23,0.00,3,,303
2012-1-25,64,49,34,33,31,29,82,54,26,30.20,30.14,30.09,10,10,10,14,4,17,0.00,0,,340
2012-1-26,74,55,36,31,28,24,70,43,16,30.20,30.09,29.98,10,10,10,13,5,21,0.00,0,,156
2012-1-27,75,58,41,33,28,24,49,33,17,30.06,29.99,29.92,10,10,10,13,5,29,0.00,0,,185
2012-1-28,73,58,43,35,31,26,65,42,19,30.24,30.11,30.03,10,10,10,13,4,16,0.00,0,,89
2012-1-29,77,62,47,30,25,18,38,25,11,30.21,30.12,30.02,10,10,10,20,7,25,0.00,0,,114
2012-1-30,75,59,43,25,22,17,49,31,12,30.08,30.00,29.92,10,10,10,15,6,18,0.00,0,,176
2012-1-31,73,60,47,24,20,13,37,23,9,30.12,30.02,29.95,10,10,10,17,8,24,0.00,0,,163